This is the latest recevied weather packets stored in our database for station/object SA7BGG-5. If no packets are shown the sender has not sent any weather packets the latest 10 day(s).
| Time | Temp. | Humidity | Pressure | Rain* | Wind** | Luminosity | Snow |
|---|---|---|---|---|---|---|---|
| 1777486202 | 12.22° C | 60% | 1033 hPa | - | - | - | - |
| 1777485902 | 12.78° C | 59% | 1033 hPa | - | - | - | - |
| 1777485602 | 12.78° C | 59% | 1033 hPa | - | - | - | - |
| 1777485301 | 13.33° C | 57% | 1033 hPa | - | - | - | - |
| 1777485006 | 13.33° C | 57% | 1033 hPa | - | - | - | - |
| 1777484701 | 13.33° C | 54% | 1033 hPa | - | - | - | - |
| 1777484400 | 13.33° C | 54% | 1033 hPa | - | - | - | - |
| 1777484105 | 13.89° C | 52% | 1033 hPa | - | - | - | - |
| 1777483804 | 13.89° C | 52% | 1033 hPa | - | - | - | - |
| 1777483504 | 14.44° C | 49% | 1033 hPa | - | - | - | - |
| 1777483204 | 14.44° C | 49% | 1033 hPa | - | - | - | - |
| 1777482903 | 15° C | 46% | 1033 hPa | - | - | - | - |
| 1777482603 | 15° C | 46% | 1033 hPa | - | - | - | - |
| 1777482302 | 15.56° C | 41% | 1033 hPa | - | - | - | - |
| 1777482002 | 15.56° C | 41% | 1033 hPa | - | - | - | - |
| 1777481702 | 16.11° C | 43% | 1033 hPa | - | - | - | - |
| 1777481402 | 16.11° C | 43% | 1033 hPa | - | - | - | - |
| 1777481101 | 16.67° C | 43% | 1032 hPa | - | - | - | - |
| 1777480801 | 16.67° C | 43% | 1032 hPa | - | - | - | - |
| 1777480500 | 16.67° C | 42% | 1032 hPa | - | - | - | - |
| 1777480200 | 16.67° C | 42% | 1032 hPa | - | - | - | - |
| 1777479905 | 17.22° C | 42% | 1032 hPa | - | - | - | - |
| 1777479604 | 17.22° C | 42% | 1032 hPa | - | - | - | - |
| 1777479304 | 17.22° C | 42% | 1032 hPa | - | - | - | - |
| 1777479004 | 17.22° C | 42% | 1032 hPa | - | - | - | - |
* Rain since midnight (hover to see other rain measurements)
** Current wind speed in m/s (hover to see current wind gust speed)